{"data":{"norad_id":66345,"epoch":"2026-09-20T03:37:57.967104Z","epoch_age_seconds":123237,"freshness":"FRESH","line1":"1 66345U 25253AC  26263.15136536  .00013127  00000+0  48554-3 0  9992","line2":"2 66345  42.9992 194.3935 0001178 279.4846  80.5872 15.27590094 49984","mean_motion":15.27590094,"eccentricity":0.0001178,"inclination_deg":42.9992,"raan_deg":194.3935,"arg_perigee_deg":279.4846,"mean_anomaly_deg":80.5872,"bstar":0.00048554,"rev_number":4998,"period_min":94.266125818436,"perigee_km":482.21062697717,"apogee_km":483.82711530041,"semimajor_km":6861.1558711388,"source":"CELESTRAK","updated_at":"2026-09-21T09:00:35.878307Z"}}